Regional Weather Roundup
Issued by NWS

Home | Current Version | Previous Version | Text Only | Print | Product List | Glossary Off
Versions: 1 2 3 4 5 6 7 8 9 10 11 12 13 14 15 16 17 18 19 20 21 22 23 24 25 26 27 28 29 30 31 32 33 34 35 36 37 38 39 40 41 42 43 44 45 46 47 48 49 50

000
ASUS43 KTOP 070859
RWRKS

WEATHER ROUNDUP FOR KANSAS
NATIONAL WEATHER SERVICE GOODLAND KS
400 AM CDT TUE JUL 07 2015

NOTE:  "FAIR" INDICATES FEW OR NO CLOUDS BELOW 12,000 FEET WITH NO
SIGNIFICANT WEATHER AND/OR OBSTRUCTIONS TO VISIBILITY.

KSZ001>006-013>018-027>032-041>047-071000-
NORTHWEST KANSAS

CITY           SKY/WX    TMP DP  RH WIND       PRES   REMARKS
GOODLAND       MOCLDY    56  52  86 E3        30.22S
HAYS           MOCLDY    64  52  63 NE9       30.11F
HILL CITY      PTCLDY    59  54  83 N9        30.15F HAZE
RUSSELL        CLOUDY    63  59  87 N8        30.09S FOG
$$

KSZ061>065-074>080-084>089-071000-
SOUTHWEST KANSAS

CITY           SKY/WX    TMP DP  RH WIND       PRES   REMARKS
DODGE CITY     CLOUDY    65  55  70 N18       30.09F HAZE
ELKHART          N/A     65  50  58 NE12        N/A
GARDEN CITY    CLOUDY    63  55  75 N14       30.12F HAZE
GREAT BEND     CLOUDY    66  57  72 NE16      30.08F
LIBERAL        CLOUDY    64  55  72 N14       30.12F
$$

KSZ066>073-081>083-090>101-071000-
SOUTHEAST KANSAS

CITY           SKY/WX    TMP DP  RH WIND       PRES   REMARKS
CHANUTE        CLOUDY    72  71  97 NE5       29.93F
COFFEYVILLE    CLOUDY    72  71  97 CALM      29.92F
HUTCHINSON     CLOUDY    68  60  75 NE16G25   30.02S HAZE
MEDICINE LODGE   N/A     66  64  93 N20       30.01R
NEWTON         CLOUDY    63  57  82 NE17G28   30.03S
PARSONS        CLOUDY    71  71 100 CALM      29.94S
WICHITA INTL   LGT RAIN  66  63  90 NE18G24   30.00R FOG
WICHITA JABRA  LGT RAIN  64  64 100 NE13      30.00R FOG
WICHITA MCCONL RAIN      64  63  94 N21G28    29.99S
WINFIELD       CLOUDY    68  67  96 N18       29.95F
$$

KSZ007>012-019>026-033>040-048>060-102>105-071000-
NORTHEAST KANSAS

CITY           SKY/WX    TMP DP  RH WIND       PRES   REMARKS
CONCORDIA      CLOUDY    62  57  83 NE8       30.09R HAZE
EMPORIA        LGT RAIN  63  60  90 NE20G32   29.99R FOG
LAWRENCE       RAIN      63  60  90 NE10G17   30.01R FOG
MANHATTAN      CLOUDY    68  62  81 N10       30.03S HAZE
OLATHE IND     CLOUDY    63  62  97 N22       29.98R FOG
OLATHE EXE     LGT RAIN  63  63 100 N14       29.98R FOG
SALINA         CLOUDY    69  60  73 N12       30.05F HAZE
TOPEKA BILLARD RAIN      63  62  97 CALM      30.02R FOG
TOPEKA FORBES  HVY RAIN  64  61  90 NE9       30.02R FOG
$$


USA.gov is the U.S. government's official web portal to all federal, state and local government web resources and services.